Regional Weather Roundup
Issued by NWS

Home | Current Version | Previous Version | Graphics & Text | Print | Product List | Glossary On
Versions: 1 2 3 4 5 6 7 8 9 10 11 12 13 14 15 16 17 18 19 20 21 22 23 24 25 26 27 28 29 30 31 32 33 34 35 36 37 38 39 40 41 42 43 44 45 46 47 48 49 50
000
ASUS43 KLOT 252358
RWRIL

ILLINOIS REGIONAL WEATHER ROUNDUP
NATIONAL WEATHER SERVICE CHICAGO/ROMEOVILLE IL
600 PM CST TUE NOV 25 2014

NOTE: "FAIR" INDICATES FEW OR NO CLOUDS BELOW 12,000 FEET WITH NO
SIGNIFICANT WEATHER AND/OR OBSTRUCTIONS TO VISIBILITY.

* THESE STATIONS ARE NOT UNDER NWS QUALITY CONTROL. THEY ALSO MAY NOT
  REPORT WEATHER SUCH AS PRECIPITATION OR FOG.

ILZ001-002-007-009-015-016-024-260100-
NORTHWEST ILLINOIS

CITY           SKY/WX    TMP DP  RH WIND       PRES   REMARKS
MOLINE         PTCLDY    21  16  81 SW3       30.15R
6HR MIN TEMP:  20; 6HR MAX TEMP:  27;

$$

ILZ003-004-008-010-011-017-018-260100-
NORTH CENTRAL ILLINOIS

CITY           SKY/WX    TMP DP  RH WIND       PRES   REMARKS
ROCKFORD       NOT AVBL
$$

ILZ005-006-012>014-019>023-260100-
NORTHEAST ILLINOIS

CITY           SKY/WX    TMP DP  RH WIND       PRES   REMARKS
CHICAGO-OHARE  PTCLDY    21  15  78 SW8       30.16R WCI  11
6HR MIN TEMP:  21; 6HR MAX TEMP:  26;

CHICAGO-MIDWAY MOCLDY    25  17  72 SW7       30.18R WCI  17
6HR MIN TEMP:  24; 6HR MAX TEMP:  30;

AURORA         CLEAR     16  11  80 W5        30.17R WCI   9
6HR MIN TEMP:  16; 6HR MAX TEMP:  24;

WAUKEGAN       NOT AVBL
DUPAGE AIRPORT CLEAR     19  14  81 SW3       30.15R
6HR MIN TEMP:  19; 6HR MAX TEMP:  24;

WHEELING       CLEAR     22  15  75 W5        30.18R WCI  16
6HR MIN TEMP:  21; 6HR MAX TEMP:  28;

NORTHERLY ISL    N/A     25  17  72 W6          N/A  WCI  18
$$

LMZ740>746-260100-
SOUTHERN LAKE MICHIGAN

STATION/POSITION SKY/WX   TEMP    WIND        PRES    VSBY  WAVE
                          AIR SEA DIR/SP/G                  HT/PER
                          (F)     (DEG/KT/KT) (MB)    (MI)  (FT/S)
SOUTHERN BUOY              29 42  260/ 12/ 16 1020.9S         3/ 6
WAUKEGAN HARBOR            23     250/ 10/ 13   N/A
HARRISON CRIB              25     230/ 10/ 13   N/A
BURNHAM HARBOR             25     220/  5/ 11   N/A
CALUMET HARBOR             24     230/  4/  8 1020.4R
MICHIGAN CITY              26     190/  7/ 10   N/A
$$

ILZ025>027-034>036-040-047-049-050-058-095>099-260100-
WEST-CENTRAL ILLINOIS

CITY           SKY/WX    TMP DP  RH WIND       PRES   REMARKS
$$

ILZ028>032-037-038-041>044-048-051>054-059>061-260100-
CENTRAL ILLINOIS

CITY           SKY/WX    TMP DP  RH WIND       PRES   REMARKS
PEORIA         NOT AVBL
SPRINGFIELD    CLEAR     28  23  81 SE5       30.17R WCI  23
6HR MIN TEMP:  28; 6HR MAX TEMP:  36;

TAYLORVILLE    NOT AVBL
$$

ILZ033-039-045-046-055>057-062-063-260100-
EAST-CENTRAL ILLINOIS

CITY           SKY/WX    TMP DP  RH WIND       PRES   REMARKS
CHAMPAIGN      CLOUDY    27  21  78 CALM      30.19R
$$

ILZ079-100>102-260100-
SOUTHWEST ILLINOIS

CITY           SKY/WX    TMP DP  RH WIND       PRES   REMARKS
ALTON          CLEAR     30  23  74 W6        30.18R WCI  24
$$

ILZ064>066-069>071-074>076-080>082-084>086-088>090-092>094-260100-
SOUTH-CENTRAL ILLINOIS

CITY           SKY/WX    TMP DP  RH WIND       PRES   REMARKS
CARBONDALE     CLEAR     31  24  75 CALM      30.19R
6HR MIN TEMP:  31; 6HR MAX TEMP:  41;

MARION         CLEAR     34  27  75 CALM      30.20R
$$

ILZ067-068-072-073-078-083-087-091-260100-
SOUTHEAST ILLINOIS

CITY           SKY/WX    TMP DP  RH WIND       PRES   REMARKS
$$

ABBREVIATIONS USED IN REMARKS
   TC - TEMPERATURE IN CELSIUS
  WCI - WIND CHILL INDEX
   HX - HEAT INDEX
  VSB - VISIBILITY
$$



USA.gov is the U.S. government's official web portal to all federal, state and local government web resources and services.